2016-08

De Wikipedia, le encyclopedia libere
Saltar al navigation Saltar al recerca
2016-08
instantia de: Augusto, calendar month of a given year[*]
parte de: 2016


precedite per: 2016-07 , succedite per: 2016-09
initio: 1 augusto 2016 , fin: 31 augusto 2016
Commons: August 2016
Actualisar le lista ora
SPARQL
Cercar imagines
Nota
item data de initio data de fin label instantia de description
Q21609216 2016-08-02 2016-08-06 2016 Vuelta a Burgos Q1015163
2.HC
Q24702551 2016-08-02 2017-05-06 Barbra: The Music, The Mem'ries, The Magic Q1573906
Q25209234 2016-08-02 2016-09-06 Bachelor in Paradise, season 3 Q3464665
Q60563302 2016-08-02 2016-09-15 Sensorimotor Outcomes of Children Exposed to Foetal Zika Virus Infection Q30612
Q11865693 2016-08-03 2016-08-20 football at the 2016 Summer Olympics Q18536594
Q18479838 2016-08-03 2016-08-19 football at the 2016 Summer Olympics – women's tournament Q27020041
Q26132862
Q24901228 2016-08-03 2016-08-13 The International 2016 Q3334740
Q1344963
Q61909550 2016-08-03 2019-02-03 Analysis of Soluble Mediators, Cytokines, and Circulating Angiogenic Factors (FACs) as Potential Predictors / Prognostic Factors in Advanced Non-squamous Lung Carcinoma Q30612
Q63595864 2016-08-03 2018-12-01 Mild Acute Ischemic Stroke With Large Vessel Occlusion (MISTWAVE) Q30612
Q63811535 2016-08-03 2019-05-31 HERrespect Evaluation Q30612
Q27953426 2016-08-04 2016-08-28 Matching! Boys Archery Q526877
Q1259759
Q28683037 2016-08-04 2016-08-07 2016 Asian Open Figure Skating Trophy Q2990963
Q62809025 2016-08-04 2019-04-30 Percutaneous US Guided Elbow Tenotomy With the TenJet HydroSurgery System Q30612
Q62814117 2016-08-04 2018-08-31 Asili Evaluation in the Democratic Republic of Congo Q30612
Q63577680 2016-08-04 2020-01-14 A Study to Assess the Pharmacokinetics, Efficacy, and Safety of Atezolizumab Administered Intravenously (IV) as a Single Agent or in Combination With Chemotherapy in Chinese Participants With Locally Advanced or Metastatic Solid Tumors Q30612
Q8613 2016-08-05 2016-08-21 2016 Summer Olympics Q159821
Q23541421 2016-08-05 2017-05-21 2016–17 2. Bundesliga Q27020041
Q26251923 2016-08-05 2016-08-06 Championnat de France 2016-2017 de Ligue 2 : les résultats de la deuxième journée Q17633526
Q33611943 2016-08-05 2016-08-14 Festival interceltique de Lorient 2016 Q27968043
Q55338666 2016-08-05 2016-11-07 Dada Africa - Dialogue With The Foreign Q29023906
Q63400616 2016-08-05 2017-03-18 Safety and Efficacy of Generic Sofosbuvir and Ribavirin for Treatment-naive Genotype 2 Chronic Hepatitis C Q30612
Q63807918 2016-08-05 2022-08 Phase II Study of Ilorasertib (ABT348) in Patients With CDKN2A Deficient Solid Tumors Q30612
Q5377427 2016-08-06 2016-08-14 tennis at the 2016 Summer Olympics Q18536594
Q47345468
Q5392247 2016-08-06 2016-08-17 table tennis at the 2016 Summer Olympics Q18536594
Q7378331 2016-08-06 2016-08-11 rugby Sevens at the 2016 Summer Olympics Q18536594
Q8022145 2016-08-06 2016-08-16 swimming at the 2016 Summer Olympics Q18536594
Q8316719 2016-08-06 2016-08-19 field hockey at the 2016 Summer Olympics Q18536594
Q11867265 2016-08-06 2016-08-12 archery at the 2016 Summer Olympics Q654150
Q18536594
Q11867321 2016-08-06 2016-08-12 judo at the 2016 Summer Olympics Q18536594
Q11874157 2016-08-06 2016-08-21 handball at the 2016 Summer Olympics Q18536594
Q11884985 2016-08-06 2016-08-21 boxing at the 2016 Summer Olympics Q18536594
Q11889336 2016-08-06 2016-08-21 cycling at the 2016 Summer Olympics Q18536594
Q15091377
Q11894270 2016-08-06 2016-08-13 Rowing at the 2016 Summer Olympics Q720609
Q18536594
Q11901844 2016-08-06 2016-08-21 gymnastics at the 2016 Summer Olympics Q18536594
Q15284197 2016-08-06 2016-08-14 fencing at the 2016 Summer Olympics Q18536594
Q16523790 2016-08-06 2016-08-20 water polo at the 2016 Summer Olympics Q18536594
Q17759500 2016-08-06 2016-08-21 basketball at the 2016 Summer Olympics Q18536594
Q18020584 2016-08-06 2016-08-14 shooting at the 2016 Summer Olympics Q18536594
Q18355214 2016-08-06 2016-08-18 Field hockey at the 2016 Summer Olympics – Men's tournament Q18536594
Q18355236 2016-08-06 2016-08-19 Field hockey at the 2016 Summer Olympics – Women's tournament Q18536594
Q18395722 2016-08-06 2016-08-21 volleyball at the 2016 Summer Olympics Q18536594
Q18395725 2016-08-06 2016-08-20 Volleyball at the 2016 Summer Olympics – Women's tournament Q18536594
Q18416654 2016-08-06 2016-08-21 Basketball at the 2016 Summer Olympics – Men's tournament Q18536594
Q18564445 2016-08-06 2016-08-16 weightlifting at the 2016 Summer Olympics Q18536594
Q23058801 2016-08-06 2016-08-21 Basketball at the 2016 Summer Olympics – Women's tournament Q18536594
Q23776822 2016-08-06 2016-08-20 Water polo at the 2016 Summer Olympics – Men's tournament Q18536594
Q23949488 2016-08-06 2016-08-21 handball at the 2016 Summer Olympics – men's tournament Q18536594
Q23949489 2016-08-06 2016-08-21 handball at the 2016 Summer Olympics – women's tournament Q18536594
Q25163142 2016-08-06 2016-08-08 Rugby sevens at the 2016 Summer Olympics – Women's tournament Q18536594
Q26156442 2016-08-06 2016-08-06 Brahmarakshas serie de television
Q26251957 2016-08-06 2016-08-06 Championnat du Super Rugby 2016 : les Hurricanes emportent le titre Q17633526
Q28725288 2016-08-06 2016-08-14 2016 Tour de Singkarak Q1973056
Q31350595 2016-08-06 2016-11-26 Lon: The Series serie de television
Q55357927 2016-08-06 2016-10-16 Charlotte Prodger Q29023906
Q55366925 2016-08-06 2016-10-06 Lodgers #7: Lonely Fingers Q29023906
Q63574707 2016-08-06 2020-08-20 Disease Natural History and Biomarkers of SPG3A, SPG4A, and SPG31 Q30612
Q63574715 2016-08-06 2028-08-03 Continuous 24h Intravenous Infusion of Mithramycin, an Inhibitor of Cancer Stem Cell Signaling, in People With Primary Thoracic Malignancies or Carcinomas, Sarcomas or Germ Cell Neoplasms With Pleuropulmonary Metastases Q30612
Q63597013 2016-08-06 2018-07-01 A Pharmacokinetic Study of Nutri-PEITC Jelly in Head and Neck Cancer Survivors Q30612
Q11899349 2016-08-07 2016-08-20 diving at the 2016 Summer Olympics Q18536594
Q16612104 2016-08-07 2016-08-21 Volleyball at the 2016 Summer Olympics – Men's tournament Q18536594
Q18020555 2016-08-07 2016-08-19 equestrian at the 2016 Summer Olympics Q18536594
Q19706972 2016-08-07 2016-08-20 canoeing at the 2016 Summer Olympics Q18536594
Q22131619 2016-08-07 2016-08-21 第98回全國高等學校野球選手權大會 Q27020041
Q23043619 2016-08-07 2016-08-14 2016 La Route de France Q1642267
2.1
Q29076150 2016-08-07 2016-11-06 War of High School serie de television
Q7400384 2016-08-08 2016-08-18 sailing at the 2016 Summer Olympics Q18536594
Q22968972 2016-08-08 2016-08-12 Rowing at the 2016 Summer Olympics – Lightweight women's double sculls Q18536594
Q21246076
Q26486550 2016-08-08 2016-08-14 Prague Pride 2016 Q12046766
Orgolio Gay
Q55337317 2016-08-08 2017-01-08 Ding Ding - Objektkunst aus der Sammlung Q29023906
Q61727995 2016-08-08 2021-12-30 Etiology and Treatment of Neonatal Seizure Q30612
Q63395078 2016-08-08 2019-12-31 Phantom Limb Experience After Brachial Plexus Anesthesia Q30612
Q63399881 2016-08-08 2018-10-08 Dexmedetomidine in Serratus Plane Block for Mastectomy Q30612
Q63401612 2016-08-08 2016-12-02 Feasibility of the Menstrual Cup for VVF Q30612
Q63813246 2016-08-08 2018-10-05 Filgotinib Alone and in Combination With Methotrexate (MTX) in Adults With Moderately to Severely Active Rheumatoid Arthritis Who Are Naive to MTX Therapy Q30612
Q22099154 2016-08-09 2016-09-05 The Gentlemen serie de television
Q23776821 2016-08-09 2016-08-19 Water polo at the 2016 Summer Olympics – Women's tournament Q18536594
Q24207137 2016-08-09 2016-09-28 Botched by Nature serie de television
Q25162542 2016-08-09 2016-08-11 Rugby sevens at the 2016 Summer Olympics – Men's tournament Q18536594
Q63403680 2016-08-09 2017-08-01 Lumbar Paravertebral in Hernia Surgery Q30612
Q20823441 2016-08-10 2016-08-13 2016 Tour de l'Ain Q1638281
2.1
Q55335736 2016-08-10 2016-11-20 Jamais-vu / Jean Guillaume Ferrée Q29023906
Q55336806 2016-08-10 2016-11-20 99 Jahre – 99 Farben Q29023906
Q62025081 2016-08-10 2018-07-04 SuperSeton Pilot Studie Q30612
Q62054698 2016-08-10 2019-10-01 Pilot Study of High Risk Lung Cancer Screening Q30612
Q63596406 2016-08-10 2017-06-20 Cardiopulmonary Resuscitation Self-training Q30612
Q63599003 2016-08-10 2017-05-10 Orogastric Versus Nasogastric Intubation Q30612
Q63813257 2016-08-10 2019-06-30 JARDIANCE Regulartory Post Marketing Surveillance in Korean Type 2 Diabetes Mellitus Q30612
Q5580624 2016-08-11 2016-08-20 golf at the 2016 Summer Olympics Q18536594
Q11894661 2016-08-11 2016-08-20 Badminton at the 2016 Summer Olympics Q324257
Q18536594
Q20645272 2016-08-11 2016-08-14 Arctic Race of Norway 2016 Arctic Race of Norway
2.HC
Q21754217 2016-08-11 2016-08-14 2016 Czech Cycling Tour Q3009575
Q25301754 2016-08-11 2016-08-18 Badminton at the 2016 Summer Olympics – Women's doubles Q18536594
Q57733494
Q28057246 2016-08-11 2016-09-11 Aleppo offensive (August–September 2016) Q180684
Q28682534 2016-08-11 2016-08-15 第59回オールスター競輪 Q27020041
Q55366926 2016-08-11 2016-09-04 Inbox: 35 x Jazz Q29023906
Q61909409 2016-08-11 2020-09-29 Alabama Community Healthy Marriage Initiative Evaluation Project for Couples Q30612
Q63393139 2016-08-11 2016-09-09 Assessment of the Efficacy and Barrier Protection of Two Cosmetic Products Q30612
Q63595912 2016-08-11 2021-12-31 Congenital Adrenal Hyperplasia Once Daily Hydrocortisone Treatment Q30612
Q18193712 2016-08-12 2016-08-21 Athletics at the 2016 Summer Olympics Q715044
Q11783626
Q19798701 2016-08-12 2017-04-07 The Get Down serie de television
Q24836047 2016-08-12 2016-10-01 Cinderella with Four Knights serie de television
Q26252711 2016-08-12 2016-08-12 Ask the StoryBots serie de television
Q26268768 2016-08-12 2016-08-14 Championnat de France 2016-2017 de Ligue 1 : les résultats de la première journée Q17633526
Q26271574 2016-08-12 2016-08-15 Championnat de France 2016-2017 de Ligue 2 : les résultats de la troisième journée Q17633526
Q26271869 2016-08-12 2016-08-14 2016 Ladies Tour of Norway Q17619325
2.1
Q55356733 2016-08-12 2016-10-23 Hans Jakob Oeri (1782-1868) Q29023906
Q55357574 2016-08-12 2016-09-11 SOUNDZZ.Z.ZZZ…Z - in cooperation with Lucerne Festival: The Conductress Q29023906
Q63533971 2016-08-12 2017-04-15 Pulse Ultrasound and Kneading Massage in Non- Specific Chronic Low Back Pain Q30612
Q63571197 2016-08-12 2017-10-10 Therapeutic Role of Transcranial DCS in Alzheimer Q30612
Q23009701 2016-08-13 2017-05-21 2016–17 Premier League Q27020041
Q30894101 2016-08-13 2016-08-23 Чемпионат Франции по шахматам 2016 Q1725521
Q63399416 2016-08-13 2017-05-23 Study to Investigate Adrenal Crisis (Six-year Follow-up) Q30612
Q11886402 2016-08-14 2016-08-21 wrestling at the 2016 Summer Olympics Q26132862
Q11896072 2016-08-14 2016-08-19 synchronized swimming at the 2016 Summer Olympics Q18536594
Q55337138 2016-08-14 2016-10-30 Einblick in die Sammlung, Teil II Q29023906
Q28501464 2016-08-15 2016-10-28 Un día cualquiera serie de television
Q62809949 2016-08-15 2018-05-31 Effects of Mindfulness on PTSD Q30612
Q63013529 2016-08-15 2017-02-11 Physical Exercise in the Quality of Life and Physical Fitness of Elderly Women With Breast Cancer Q30612
Q63229218 2016-08-15 2017-04-15 Efficacy of External Nasal Nerve Block in Prevention of Postoperative Agitation Following Nasal Surgeries Q30612
Q63394767 2016-08-15 2019-01-18 Effect of Remote Ischaemic preConditioning on Liver Injury in Patients Undergoing LIVER Resection Surgery Q30612
Q63578126 2016-08-15 2020-08-20 Pembrolizumab in Treating Patients With Rare Tumors That Cannot Be Removed by Surgery or Are Metastatic Q30612
Q63579680 2016-08-15 2018-05-20 Lung Ultrasound Patterns Preeclampsia Q30612
Q63594745 2016-08-15 2018-07-31 Beliefs and Attitudes for Successful Implementation in Schools (BASIS) Q30612
Q63598045 2016-08-15 2017-04-03 Gene Expression in Intervened Athletes Q30612
Q20830577 2016-08-16 2016-08-19 2016 Tour du Limousin Q1025846
2.1
Q28129605 2016-08-16 2016-08-20 2016 IBSF World Under-18 Snooker Championship Q17299750
Q28669238 2016-08-16 2016-10-28 2016 Turkmenistan Cup Q27020041
Q30106747 2016-08-16 2016-09-13 泫雅的X19 Q15416
Q61902391 2016-08-16 2019-12-31 Can Cognitive Training Decrease Reactive Aggression? Q30612
Q63578138 2016-08-16 2019-07-02 Extended Evaluation of Deferasirox Film-coated Tablet (FCT) Formulation Q30612
Q63598072 2016-08-16 2017-12-21 Factors Increasing Air Burden in Intravenous Tubing Q30612
Q64005471 2016-08-16 2016-08-23 Tropical storm Fiona Q3157041
Q17144512 2016-08-17[1] 2016-08-21[1] 74th World Science Fiction Convention Q1958056
Q617378
Q19710306 2016-08-17 2016-08-20 taekwondo at the 2016 Summer Olympics Q18536594
Q25423036 2016-08-17 2017-10-22 Copa Rio 2016 Q27020041
Q61955757 2016-08-17 2025-08 Gene Transfer for X-Linked Severe Combined Immunodeficiency in Newly Diagnosed Infants Q30612
Q62025973 2016-08-17 2017-04-13 A Study of SYNT001 in Healthy Volunteers Q30612
Q62063154 2016-08-17 2019-12 The Safety of the 6-minute Walk Test After Acute Myocardial Infarction Q30612
Q63398895 2016-08-17 2017-05-17 Leucine or Protein Supplementation and Resistance Training Q30612
Q11884970 2016-08-18 2016-08-20 modern pentathlon at the 2016 Summer Olympics Q18536594
Q18416810 2016-08-18 2016-08-20 triathlon at the 2016 Summer Olympics Q18536594
Q25479540 2016-08-18 2017-06-18 Bodrum Masalı serie de television
Q26704347 2016-08-18 2017-03-25 Las Campos Q15416
Q27953541 2016-08-18 2017-04-22 我耳邊的糖果 Q15416
Q63012407 2016-08-18 2017-09-06 Ultrasound-guided Peripheral IJ Study Q30612
Q63576120 2016-08-18 2017-03-31 Efficacy of FLU-v in an H1N1 Influenza Human Challenge Model Q30612
Q23497990 2016-08-19 2017-05-21 2016–17 La Liga Q27020041
Q26487453 2016-08-19 2016-08-21 Championnat de France 2016-2017 de Ligue 1 : les résultats de la deuxième journée Q17633526
Q26678204 2016-08-19 2016-08-22 Championnat de France 2016-2017 de Ligue 2 : les résultats de la quatrième journée Q17633526
Q26678279 2016-08-19 2016-08-22 Championnat d'Espagne de football 2016-2017 : les résultats de la première journée Q17633526
Q55336268 2016-08-19 2016-10-01 Kathrin Affentranger Q29023906
Q57588671 2016-08-19 2016-08-21 French-speaking WikiConvention 2016 Q27968055
Q42305379
Q20730613 2016-08-20 2016-08-27 2016 Tour de l'Avenir Q183186
2.Ncup
Q20882755 2016-08-20 2016-09-11 2016 Vuelta a España Q33937
2.UWT
Q21031045 2016-08-20 2016-10-08 2016 Rugby Championship Q58344
Q23728326 2016-08-20 2017-05-28 2016–17 Serie A Q27020041
Q23756432 2016-08-20[2] 2017-05-21[2] 2016–17 Cypriot First Division Q27020041
Q26426312 2016-08-20 2016-08-21 2016-17 Top 14 French Rugby, day 1 Q17633526
Q26456059 2016-08-20 2016-08-20 Tournoi des Quatre Nations 2016 : les résultats de la première journée Q17633526
Q28129604 2016-08-20 2016-08-25 2016 IBSF World Under-21 Snooker Championship Q17299750
Q28158831 2016-08-20 2017-07-03 KNVB beker 2016/17 Q27020041
Q55357116 2016-08-20 2016-11-13 Enthralling Engraving - The Enterprise of Hendrick Goltzius Q29023906
Q63229738 2016-08-20 2018-12-01 Remediation of the Non-Paretic Arm in Stroke Q30612
Q63404060 2016-08-20 2017-06-28 Sedation and Ease of Weaning From Mechanical Ventilation Q30612
Q17624461 2016-08-21 2016-08-28 2016 World Rowing Championships Q1413606
Q26268493 2016-08-21 2016-08-27 2016 Winston-Salem Open Q300009
Q47345468
Q26432389 2016-08-21 2016-08-24 Trophée d'or féminin 2016 Q3540468
2.2
Q26701473 2016-08-21 2016-08-28 2016 World Rowing U23 Championships Q2953911
Q63229247 2016-08-21 2017-01-12 New, Previously Unknown, Uses of Optical Coherence Tomography Angiography (OCTA) Q30612
Q23001122 2016-08-22 2016-10-18 Love in the Moonlight serie de television
Q55352640 2016-08-22 2016-08-28 Scouted by LUCA Q29023906
Q61907390 2016-08-22 2016-12-26 A Study to Compare Pharmacokinetics and Pharmacodynamics of Insulin Lispro to Humalog® in Healthy Subjects Q30612
Q62813339 2016-08-22 2017-02-16 Shifting Brain Excitation-Inhibition Balance in Autism Spectrum Disorder Q30612
Q63402084 2016-08-22 2016-11-16 Diets, Metabolic Profile and Gut Microbiota Among Indonesian Women in Minangkabau and Sundanese-ethnic Community Q30612
Q63571424 2016-08-22 2016-12-31 Treatment of Acetabular Fracture: the Contribution of the 3D Impression Q30612
Q64005472 2016-08-22 2016-09-02 Hurricane Gaston Q63100595
Q20872308 2016-08-23 2016-08-26 2016 Tour du Poitou-Charentes Q1533156
2.1
Q26701472 2016-08-23 2016-08-28 2016 World Rowing Junior Championships Q6139189
Q28602322 2016-08-23 2017-05-24 Bunk'd, season 2 Q3464665
Q61909401 2016-08-23 2021-01 Chronic Hepatitis B Virus Infection in Zambia Q30612
Q63229254 2016-08-23 2017-11-08 Integrating Touchscreen-based Geriatric Assessment and Frailty Screening for Adults With Multiple Myeloma Q30612
Q63402462 2016-08-23 2017-02-23 Eating Behavior, Food Craving and Relation to Excessive Weight Gain in Patients Submitted to Liver Transplantation Q30612
Q22975029 2016-08-24 2016-11-10 Don't Dare to Dream serie de television
Q23022446 2016-08-24 2016-12-11 2016–17 ISU Junior Grand Prix Q57305027
Q26157694 2016-08-24 2016-08-28 2016 Paul Hunter Classic Q17299750
Q26690015 2016-08-24 2017-03-29 Operation Euphrates Shield Q645883
Q26698205 2016-08-25 2016-08-28 2016-17 Pro D2 French Rugby, day 1 Q17633526
Q63813046 2016-08-25 2017-10 Training Balance Control in Children With Cerebral Palsy Using Virtual Reality Games Q30612
Q63813317 2016-08-25 2017-08 MRI and Cardio-Pulmonary Exercise Testing in Evaluating Exercise Intolerance in Patients With Stage I-III Breast Cancer After Chemotherapy Treatment Q30612
Q22970620 2016-08-26 2017-05-20 2016–17 Bundesliga Q27020041
Q24283692 2016-08-26 2016-12-02 The Voice Kids Indonesia (season 1) Q3464665
Q26715069 2016-08-26 2016-08-28 Championnat de France 2016-2017 de Ligue 1 : les résultats de la troisième journée Q17633526
Q26720936 2016-08-26 2016-08-28 Championnat d'Espagne de football 2016-2017 : les résultats de la deuxième journée Q17633526
Q26720953 2016-08-26 2016-08-29 Championnat de France 2016-2017 de Ligue 2 : les résultats de la cinquième journée Q17633526
Q26906184 2016-08-26 2017-01-30 Bana Sevmeyi Anlat serie de television
Q38806025 2016-08-26 2016-09-03 Hurricane Madeline cyclon tropic
Q55351241 2016-08-26 2016-10-30 VisualLeader: The Best of Magazines and the Internet Q29023906
Q55368151 2016-08-26 2016-11-13 Drawings and Prints 1968-2016 Q29023906
Q59671219 2016-08-26 2016-08-28 2016 Baltic Chain Tour Baltic Chain Tour
Q62062143 2016-08-26 2020-01-31 Estrogen in Kidney Study Q30612
Q63577693 2016-08-26 2019-05-12 BTK Inhibitor in B Cell Malignancies Q30612
Q63593587 2016-08-26 2018-11-16 An Evaluation of Probiotic in the Clinical Course of Patients With Colorectal Cancer Q30612
Q24000631 2016-08-27 2017-02-26 The Gentlemen of Wolgyesu Tailor Shop Q15416
Q24659708 2016-08-27 2017-02-26 Blow Breeze serie de television
Q24832237 2016-08-27 2017-04-08 Our Gap-soon serie de television
Q25453669 2016-08-27 2017-05-28 2016–17 Botola Q27020041
Q26698186 2016-08-27 2016-08-28 2016-17 Top 14 French Rugby, day 2 Q17633526
Q26709877 2016-08-27 2016-08-27 Tournoi des Quatre Nations 2016 : les résultats de la deuxième journée Q17633526
Q55369391 2016-08-27 2017-01-08 We Call It Lud­wig. The Mu­se­um Lud­wig Is Turn­ing 40! Q29023906
Q55371857 2016-08-27[3] 2016-10-23[3] Mens erger je niet / De keuze van de erfgoedbewakers Q29023906[4][3]
Q26720969 2016-08-28 2016-09-02 2016 Tour Ethiopian Meles Zenawi Q26722387
2.2
Q26726254 2016-08-28 2016-09-02 2016 Tour of Bulgaria Q588962
2.2
Q55336847 2016-08-28 2016-11-13 Caravan 3/2016 Q29023906
Q55337312 2016-08-28 2016-11-13 Kopf und Herz Q29023906
Q55337313 2016-08-28 2016-11-13 Ding Ding. Objektkunst aus der Sammlung Q29023906
Q55337314 2016-08-28 2016-11-13 Der Zeichner Q29023906
Q61909821 2016-08-28 2017-04-26 The Effect of In-vitro Myoinositol Supplementation of Human Sperm on the Outcome of Cryopreservation Q30612
Q63255387 2016-08-28 2016-09-25 Sarah Wiener – Eine Woche unter ... serie de television
Q63593669 2016-08-28 2017-12-08 How Does a Synbiotic Supplement Affect Iron Status During Iron Repletion in Iron Depleted Female Athletes? Q30612
Q64005473 2016-08-28 2016-09-01 Tropical depression Eight Q18650988
Q21980662 2016-08-29 2016-11-01 Moon Lovers: Scarlet Heart Ryeo serie de television
Q24480003 2016-08-29 2016-09-11 2016 US Open Q123577
Q47345468
Q26716052 2016-08-29 2016-09-04 2016 Wind Energy Holding Bangkok Open Q26722566
Q47345468
Q26898246 2016-08-29 2017-12-02 Maggie & Bianca Fashion Friends serie de television
Q27628269 2016-08-29 2016-11-06 2016 Hama offensive Q180684
Q52779674 2016-08-29 2016-09-02 22nd European Conference on Artificial Intelligence Q2020153
Q63404300 2016-08-29 2018-01 Ultra Dual-Energy X-ray Absorptiometry (DXA): Accurate and Precise Quantitative Multi-compartment Body Composition Q30612
Q63534404 2016-08-29 2016-12-21 Barriers and Facilitators to Cycling for Lumbar Spinal Stenosis Q30612
Q25316393 2016-08-30 2016-09-04 2016 Brazil Open Badminton Championships Q17565737
Q26710099 2016-08-30 2016-09-04 2016 Boels Rental Ladies Tour Q1572063
2.1
Q61909658 2016-08-30 2019-08-29 Effect of Good Pain Management (GPM) Ward Program on Moderate to Severe Cancer Pain Patients Q30612
Q63229023 2016-08-30 2017-09-07 QUANtification of Cardiovascular Autonomic Neuropathy (CAN) and the Effects of Anaesthesia on Haemodynamics and Cerebral Perfusion Q30612
Q63534655 2016-08-30 2018-01-31 An Educational Intervention to Improve Disease Management Knowledge of Hospitalized Patients With COPD Q30612
Q63805389 2016-08-30 2016-11-30 Superselective Intra-arterial Chemotherapy Treatment for Retinoblastoma- 5 Year Results From Turkey Q30612
Q21027926 2016-08-31 2016-09-04 2016 Tour des Fjords Q128713
2.1
Q22905781 2016-08-31 2016-09-10 73rd Venice International Film Festival Q27787439
Q24073873 2016-08-31 2017-05-27 2016–17 Copa del Rey Q27020041
Q24929970 2016-08-31 2016-09-04 France International Baseball Tournament 2016 Q2990947
Q60563355 2016-08-31 2017-10-31 Study of GLS-5700 in Dengue Virus Seropositive Adults Q6934595
Q60563370 2016-08-31 2016-11-30 Parental Views Related to Colorado State Legislation About Vaccinations, Schools, and Child Care Centers Q30612
Q60673343 2016-08-31 2016-09-29 SWAP Q526877
Q63012227 2016-08-31 2017-11-01 Red Wine Effects Upon Gut Flora and Plasma Levels of Trimethylamine-N-oxide (TMAO) - WineFlora Study Q30612
Q63398589 2016-08-31 2020-03 Break the Cycle: Prevention for Reducing Initiation Into Injection Drug Use Q30612
Q63400919 2016-08-31 2017-04-11 Key Information Can Influence Clinician Ordering of Brain CTs Q30612
Q63813254 2016-08-31 2019-10-01 An Efficacy and Safety Study of Niraparib in Men With Metastatic Castration-Resistant Prostate Cancer and DNA-Repair Anomalies Q30612
Fin de lista generate per ListeraBot.
  1. 1,0 1,1 https://midamericon2.org/
  2. 2,0 2,1 http://www.rsssf.com/tablesc/cyp2017.html#ga
  3. 3,0 3,1 3,2 AdLib S.M.A.K.
  4. De Witte Raaf